[[[{"header":{"parameterUnit":"kt","parameterCategory":2,"dx":1,"dy":1,"la1":30.253999710083008,"la2":30.299108505249023,"lo1":-89.0895004272461,"lo2":-89.04439544677734,"nx":28,"ny":28,"refTime":"2022-10-14T21:00:00:Z","depth":0,"parameterNumber":1,"parameterNumberName":"U-component_of_WINDS"},"data":[-0.3743,-0.3761,-0.3739,-0.375,-0.3732,-0.3736,-0.3731,-0.3723,-0.371,-0.3714,-0.3713,-0.3693,-0.3674,-0.3668,-0.3667,-0.3659,-0.3661,-0.3683,-0.3671,-0.3588,-0.3575,-0.3563,-0.3558,-0.3683,-0.3683,-0.376,-0.3761,-0.3762,-0.3688,-0.367,-0.3668,-0.3653,-0.3652,-0.3617,-0.3602,-0.3605,-0.361,-0.3594,-0.3591,-0.3593,-0.3592,-0.3564,-0.356,-0.357,-0.3554,-0.357,-0.3571,-0.3569,-0.3479,-0.3474,-0.3583,-0.3583,-0.3583,-0.3583,-0.3583,-0.3583,-0.3581,-0.3591,-0.3569,-0.3567,-0.3552,-0.3542,-0.355,-0.3525,-0.3524,-0.3515,-0.3489,-0.3495,-0.3476,-0.346,-0.345,-0.3455,-0.3433,-0.3445,-0.3448,-0.3453,-0.3461,-0.3359,-0.3452,-0.3452,-0.3452,-0.3451,-0.3451,0,-0.3497,-0.3478,-0.3474,-0.3464,-0.3461,-0.3452,-0.3439,-0.3443,-0.3396,-0.3397,-0.3397,-0.3394,-0.3388,-0.3387,-0.3378,-0.3364,-0.3331,-0.3324,-0.3333,-0.3347,-0.3362,-0.3358,-0.3215,-0.3322,-0.3321,-0.332,-0.3319,-0.3319,-0.3391,-0.3404,-0.3369,-0.3369,-0.3357,-0.3358,-0.3355,-0.3311,-0.331,-0.3289,-0.3301,-0.3298,-0.3294,-0.3299,-0.3272,-0.3267,-0.3252,-0.3296,-0.3251,-0.3264,-0.3257,-0.3258,-0.326,-0.3306,-0.3308,-0.3309,-0.331,0,-0.3334,-0.3296,-0.331,-0.3273,-0.3265,-0.3282,-0.3252,-0.3261,-0.3235,-0.3244,-0.3244,-0.3205,-0.3206,-0.317,-0.3165,-0.3146,-0.318,-0.3162,-0.3186,-0.3182,-0.322,-0.3219,-0.3343,-0.3358,-0.3224,-0.3225,-0.3227,0,-0.323,-0.325,-0.3193,-0.3203,-0.3224,-0.3179,-0.3202,-0.3182,-0.3163,-0.3169,-0.3124,-0.3131,-0.3084,-0.3087,-0.306,-0.3079,-0.3077,-0.3066,-0.3059,-0.3072,-0.3074,-0.3073,-0.3069,-0.3038,-0.3038,-0.3037,-0.3037,0,-0.3148,-0.3138,-0.3154,-0.3146,-0.3109,-0.3117,-0.3103,-0.308,-0.3077,-0.3068,-0.3066,-0.3058,-0.3054,-0.305,-0.3015,-0.2987,-0.3037,-0.2991,-0.3026,-0.3027,-0.3041,-0.3041,-0.3158,-0.3036,-0.3036,-0.3036,-0.3036,0,-0.3059,-0.3048,-0.3074,-0.3043,-0.3042,-0.3052,-0.3041,-0.3041,-0.3021,-0.3004,-0.2996,-0.2961,-0.2973,-0.293,-0.2947,-0.292,-0.292,-0.2909,-0.2911,-0.2912,-0.2866,-0.2941,-0.3052,-0.3064,-0.2911,-0.291,-0.2909,0,-0.2977,-0.2992,-0.2953,-0.298,-0.2983,-0.2931,-0.2941,-0.2924,-0.2902,-0.2902,-0.2878,-0.2879,-0.2839,-0.2834,-0.2846,-0.2823,-0.2857,-0.2816,-0.2822,-0.2823,-0.2832,-0.2933,-0.2961,-0.3031,-0.2895,-0.2896,-0.2897,0,-0.2908,-0.286,-0.2867,-0.2857,-0.2825,-0.2826,-0.2838,-0.2827,-0.283,-0.2814,-0.2825,-0.2823,-0.2794,-0.2786,-0.2757,-0.2772,-0.2832,-0.2739,-0.2738,-0.276,-0.2883,-0.291,-0.2922,-0.281,-0.2812,-0.2813,-0.2886,0,-0.2789,-0.2791,-0.2807,-0.2784,-0.2778,-0.2792,-0.2751,-0.2751,-0.2723,-0.2699,-0.2712,-0.2688,-0.2679,-0.2681,-0.2654,-0.2698,-0.2686,-0.2654,-0.2612,-0.2678,-0.2701,-0.2711,-0.2581,-0.2579,-0.2578,-0.2577,0,0,-0.2722,-0.2722,-0.2678,-0.2686,-0.2679,-0.2624,-0.2643,-0.2629,-0.2605,-0.2602,-0.2577,-0.2572,-0.2554,-0.2574,-0.2591,-0.2586,-0.2592,-0.257,-0.2646,-0.2654,-0.2661,-0.2687,-0.2697,-0.2575,-0.2574,-0.2574,-0.2573,0,-0.267,-0.2648,-0.2665,-0.2649,-0.2623,-0.2596,-0.26,-0.2566,-0.2551,-0.2561,-0.2518,-0.2521,-0.2516,-0.2504,-0.2497,-0.2566,-0.2534,-0.2565,-0.2617,-0.2635,-0.2644,-0.2653,-0.268,-0.269,-0.257,-0.257,-0.2571,0,-0.2597,-0.257,-0.2573,-0.2552,-0.2535,-0.2538,-0.2483,-0.2488,-0.249,-0.2431,-0.2443,-0.2424,-0.2403,-0.2426,-0.2434,-0.2413,-0.2484,-0.2453,-0.246,-0.2461,-0.2476,-0.2488,-0.2498,-0.2364,-0.2363,-0.2363,0,0,-0.2559,-0.2558,-0.2516,-0.2538,-0.253,-0.2489,-0.2486,-0.2457,-0.2438,-0.243,-0.2406,-0.2389,-0.2387,-0.2386,-0.2381,-0.2411,-0.2405,-0.2429,-0.2439,-0.2447,-0.2453,-0.247,-0.2482,-0.2361,-0.2361,-0.2361,0,0,-0.254,-0.2491,-0.2466,-0.2485,-0.2468,-0.2429,-0.2444,-0.2413,-0.2404,-0.2398,-0.2351,-0.2345,-0.2365,-0.2348,-0.2325,-0.2366,-0.2325,-0.233,-0.2377,-0.2388,-0.2398,-0.2403,-0.2267,0,0,0,0,0,-0.2466,-0.2497,-0.2475,-0.2472,-0.2444,-0.2441,-0.2437,-0.2398,-0.237,-0.2384,-0.2358,-0.2323,-0.2326,-0.2304,-0.2303,-0.233,-0.2334,-0.2339,-0.2343,-0.241,-0.2423,-0.2434,0,0,0,0,0,0,-0.2465,-0.2461,-0.2474,-0.2436,-0.243,-0.2439,-0.2384,-0.2374,-0.2368,-0.2361,-0.2329,-0.2322,-0.229,-0.2303,-0.2302,-0.2329,-0.2267,-0.2336,-0.234,-0.2343,-0.2415,-0.2425,-0.2434,0,0,0,0,0,-0.2463,-0.246,-0.2426,-0.2435,-0.243,-0.2386,-0.2382,-0.2373,-0.2368,-0.2328,-0.232,-0.234,-0.2292,-0.2289,-0.2302,-0.233,-0.2267,-0.2267,-0.2338,-0.2342,-0.2344,-0.242,0,0,0,0,0,0,-0.2462,-0.2453,-0.2424,-0.2421,-0.242,-0.2384,-0.2377,-0.2373,-0.2335,-0.2327,-0.2336,-0.2331,-0.2293,-0.2291,-0.2289,-0.2333,-0.2267,-0.2267,-0.2267,-0.2341,-0.2343,-0.2346,0,0,0,0,0,0,-0.2454,-0.2451,-0.2422,-0.2405,-0.24,-0.2383,-0.2377,-0.2382,-0.2335,-0.2345,-0.234,-0.2334,-0.2297,-0.2292,-0.229,-0.23,-0.2267,-0.2267,-0.2267,-0.2267,-0.2343,-0.2345,0,0,0,0,0,0,-0.2452,-0.2449,-0.2406,-0.2402,-0.2397,-0.2359,-0.2388,-0.2362,-0.2319,-0.2348,-0.2314,-0.2312,-0.23,-0.2297,-0.2292,-0.2303,-0.2301,-0.2267,-0.2267,-0.2267,-0.2267,0,0,0,0,0,0,0,-0.245,-0.248,-0.2442,-0.2399,-0.2394,-0.2392,-0.2392,-0.2391,-0.2319,-0.2317,-0.2315,-0.2313,-0.2268,-0.2268,-0.2267,-0.2305,0,0,-0.2267,-0.2267,0,0,0,0,0,0,0,0,-0.248,-0.248,-0.2442,-0.2442,-0.2441,-0.2392,-0.2392,-0.2391,-0.2318,-0.2317,-0.2315,-0.2314,-0.2268,-0.2268,-0.2267,0,0,0,0,0,0,0,0,0,0,0,0,0,0,0,-0.2442,-0.2442,0,-0.2392,-0.2392,-0.2391,-0.2318,-0.2317,-0.2316,-0.2314,-0.2268,-0.2268,-0.2267,0,0,0,0,0,0,0,0,0,0,0,0,0,0,0,0,0,0,0,0,0,0,0,0,0,0,0,0,0,0,0,0,0,0,0,0,0,0,0,0,0,0,0,0,0,0,0,0,0,0,0,0,0,0,0,0,0,0,0,0,0,0,0,0,0,0,0,0,0]}],[{"header":{"parameterUnit":"kt","parameterCategory":2,"dx":1,"dy":1,"la1":30.253999710083008,"la2":30.299108505249023,"lo1":-89.0895004272461,"lo2":-89.04439544677734,"nx":28,"ny":28,"refTime":"2022-10-14T21:00:00:Z","depth":0,"parameterNumber":2,"parameterNumberName":"V-component_of_WINDS"},"data":[3.3068,3.3077,3.307,3.3075,3.307,3.3071,3.3069,3.3066,3.3061,3.306,3.3058,3.3051,3.3042,3.3036,3.3032,3.3028,3.3026,3.3033,3.3027,3.3005,3.3001,3.2997,3.2995,3.3033,3.3033,3.3051,3.3052,3.3052,3.3046,3.3041,3.3043,3.304,3.3041,3.3029,3.3025,3.3026,3.3028,3.3022,3.3021,3.3019,3.3017,3.3006,3.3001,3.3002,3.2996,3.3001,3.3,3.2999,3.2974,3.2972,3.3006,3.3006,3.3006,3.3006,3.3006,3.3006,3.3004,3.3011,3.3006,3.3008,3.3005,3.3002,3.3006,3.2998,3.2999,3.2997,3.2988,3.2989,3.2982,3.2974,3.2969,3.2968,3.2961,3.2964,3.2965,3.2965,3.2966,3.2937,3.2967,3.2967,3.2967,3.2967,3.2967,0,3.2972,3.2966,3.2969,3.2969,3.297,3.2969,3.2968,3.297,3.2955,3.2956,3.2957,3.2956,3.2954,3.2952,3.2947,3.2942,3.293,3.2928,3.293,3.2934,3.2936,3.2932,3.2891,3.2928,3.2927,3.2927,3.2927,3.2927,3.2927,3.2937,3.293,3.2932,3.293,3.2935,3.2936,3.2923,3.2924,3.2919,3.2924,3.2924,3.2923,3.2924,3.2914,3.2912,3.2906,3.292,3.2905,3.2907,3.2903,3.2902,3.2902,3.2923,3.2923,3.2924,3.2924,0,3.2902,3.2893,3.2906,3.2899,3.2897,3.2907,3.2899,3.2905,3.2898,3.2904,3.2904,3.2892,3.2893,3.2881,3.288,3.2873,3.2883,3.2878,3.2884,3.2882,3.2892,3.2891,3.2931,3.2935,3.2897,3.2897,3.2898,0,3.286,3.2873,3.2859,3.2868,3.288,3.2868,3.2881,3.2876,3.2872,3.2877,3.2863,3.2867,3.2852,3.2854,3.2844,3.2851,3.2851,3.2846,3.2843,3.2847,3.2847,3.2846,3.2844,3.2839,3.2839,3.2839,3.2839,0,3.2821,3.2831,3.2844,3.2845,3.2839,3.2845,3.2843,3.2839,3.2841,3.2841,3.2841,3.2842,3.2842,3.2841,3.2829,3.2819,3.2838,3.2822,3.2832,3.2832,3.2837,3.2836,3.2875,3.2839,3.2839,3.2838,3.2838,0,3.2786,3.2789,3.2811,3.2805,3.2808,3.2818,3.2818,3.2824,3.2821,3.2816,3.2816,3.2806,3.2813,3.2797,3.2806,3.2796,3.2796,3.2792,3.2793,3.2792,3.2775,3.2797,3.2837,3.2839,3.2791,3.279,3.279,0,3.2741,3.2763,3.2754,3.2775,3.2783,3.2767,3.2776,3.2776,3.2771,3.2775,3.2769,3.2775,3.2762,3.2762,3.2768,3.2761,3.2774,3.2759,3.2761,3.2762,3.2761,3.2798,3.2807,3.2829,3.2785,3.2786,3.2786,0,3.2706,3.2703,3.2708,3.2708,3.2708,3.2716,3.2727,3.2732,3.2735,3.2737,3.2745,3.2754,3.2743,3.2745,3.2737,3.2744,3.2765,3.2732,3.2731,3.2736,3.2783,3.279,3.2794,3.2757,3.2758,3.2758,3.2782,0,3.265,3.2662,3.2675,3.268,3.2685,3.2699,3.2691,3.2697,3.2689,3.2684,3.2697,3.2696,3.27,3.2703,3.2696,3.2716,3.2711,3.2701,3.2685,3.271,3.2717,3.272,3.2674,3.2674,3.2673,3.2673,0,0,3.2608,3.2626,3.2618,3.2631,3.2635,3.262,3.2635,3.2637,3.2642,3.2643,3.2635,3.2648,3.2648,3.2664,3.2671,3.2674,3.2675,3.2668,3.2698,3.2701,3.2704,3.2712,3.2716,3.2672,3.2672,3.2672,3.2672,0,3.2586,3.259,3.2608,3.261,3.2613,3.2608,3.2612,3.2613,3.2611,3.2626,3.2612,3.2619,3.2633,3.2632,3.2634,3.2666,3.2655,3.2668,3.2687,3.2694,3.2698,3.2701,3.271,3.2713,3.267,3.2671,3.2671,0,3.2549,3.255,3.2559,3.257,3.2573,3.2583,3.2564,3.2578,3.2584,3.2568,3.2583,3.2581,3.2582,3.26,3.2608,3.26,3.2637,3.2625,3.2628,3.2628,3.2635,3.2639,3.2643,3.2593,3.2593,3.2592,0,0,3.2531,3.2544,3.2542,3.2566,3.2568,3.2563,3.2568,3.2562,3.2565,3.2566,3.2565,3.2566,3.2573,3.2578,3.2585,3.2607,3.2604,3.2616,3.262,3.2623,3.2625,3.2632,3.2636,3.2591,3.2591,3.2591,0,0,3.2522,3.2523,3.2516,3.2542,3.2545,3.2545,3.2559,3.255,3.2556,3.2553,3.2543,3.2543,3.2561,3.256,3.2549,3.2578,3.2563,3.2566,3.2579,3.2583,3.2587,3.2586,3.2529,0,0,0,0,0,3.2498,3.2522,3.2516,3.252,3.2535,3.2549,3.255,3.2544,3.2532,3.2542,3.2539,3.2528,3.2551,3.2541,3.2544,3.2556,3.258,3.2582,3.2584,3.2606,3.261,3.2614,0,0,0,0,0,0,3.2499,3.2503,3.2515,3.2517,3.252,3.2548,3.2527,3.2525,3.2531,3.2529,3.2529,3.2529,3.2522,3.2539,3.2542,3.2554,3.2529,3.2581,3.2582,3.2584,3.2607,3.2611,3.2615,0,0,0,0,0,3.25,3.2504,3.2531,3.2516,3.2519,3.2516,3.2526,3.2524,3.2528,3.2525,3.2524,3.2523,3.2523,3.2524,3.2541,3.2553,3.2527,3.2528,3.2582,3.2583,3.2584,3.2609,0,0,0,0,0,0,3.2501,3.2502,3.2531,3.2532,3.2508,3.2514,3.2515,3.2524,3.2524,3.2524,3.2518,3.2516,3.2523,3.2524,3.2526,3.2553,3.2525,3.2526,3.2527,3.2583,3.2584,3.2585,0,0,0,0,0,0,3.25,3.2502,3.2532,3.2521,3.252,3.2513,3.2514,3.2527,3.2524,3.2517,3.2516,3.2517,3.2521,3.2525,3.2526,3.2547,3.2524,3.2525,3.2526,3.2526,3.2584,3.2585,0,0,0,0,0,0,3.2501,3.2503,3.2521,3.252,3.2519,3.2525,3.2524,3.254,3.2517,3.2517,3.2514,3.2513,3.2521,3.2522,3.2526,3.2547,3.2547,3.2524,3.2525,3.2525,3.2526,0,0,0,0,0,0,0,3.2501,3.2489,3.2528,3.2519,3.2519,3.2537,3.2537,3.2537,3.2517,3.2516,3.2515,3.2514,3.2519,3.252,3.2521,3.2547,0,0,3.2524,3.2524,0,0,0,0,0,0,0,0,3.2488,3.2488,3.2528,3.2528,3.2529,3.2537,3.2537,3.2537,3.2516,3.2516,3.2515,3.2514,3.2519,3.252,3.2521,0,0,0,0,0,0,0,0,0,0,0,0,0,0,0,3.2528,3.2528,0,3.2537,3.2537,3.2537,3.2516,3.2516,3.2515,3.2514,3.2519,3.252,3.2521,0,0,0,0,0,0,0,0,0,0,0,0,0,0,0,0,0,0,0,0,0,0,0,0,0,0,0,0,0,0,0,0,0,0,0,0,0,0,0,0,0,0,0,0,0,0,0,0,0,0,0,0,0,0,0,0,0,0,0,0,0,0,0,0,0,0,0,0,0]}]]]